Weather History for Bird Island, South Georgia and the South Sandwich Islands

Change the Weather History Date:

Saturday, July 20, 2013

  Actual Average Record
Temperature  
Mean Temperature 34 °F -  
Max Temperature 34 °F - - ()
Min Temperature 33 °F - - ()
Degree Days  
Heating Degree Days 32    
Moisture  
Dew Point 31 °F    
Average Humidity 84    
Maximum Humidity 93    
Minimum Humidity 74    
Precipitation  
Precipitation 0.00 in - - ()
Sea Level Pressure  
Sea Level Pressure 29.58 in    
Wind  
Wind Speed 7 mph ()    
Max Wind Speed 22 mph    
Max Gust Speed -    
T = Trace of Precipitation, MM = Missing Value Source: Averaged Metar Reports

Daily Weather History Graph

Daily Weather History Graph

Search for Another Location

Airport:

Trip Planner

Search our weather history database for the weather conditions in past years. The results will help you decide how hot, cold, wet, or windy it might be!

Date:

Astronomy

Jul. 20, 2013 Rise Set
Actual Time 8:36 AM GST 4:41 PM GST
Civil Twilight 7:54 AM GST 5:22 PM GST
Nautical Twilight 7:10 AM GST 6:07 PM GST
Astronomical Twilight 6:28 AM GST 6:49 PM GST
Moon 2:34 PM GST (7/20) 6:10 AM GST (7/20)
Length of Visible Light 9h 27m
Length of Day
8h 05m
Waxing Gibbous, 93% of the Moon is Illuminated
Jul 20
Waxing Gibbous
Jul 22
Full
Jul 29
Last Quarter
Aug 6
New
Aug 14
First Quarter

Hourly Weather History & Observations

Time (GST) Temp. Dew Point Humidity Pressure Visibility Wind Dir Wind Speed Gust Speed Precip Events Conditions
12:00 AM 34 °F 31 °F 83% 29.21 in - SSW 8.1 mph - -  
2:00 AM 34 °F 31 °F 85% 29.28 in - South 4.6 mph - -  
3:00 AM 34 °F 32 °F 87% 29.30 in - SSW 11.5 mph - -  
4:00 AM 35 °F 30 °F 74% 29.33 in - South 10.4 mph - -  
5:00 AM 35 °F 30 °F 76% 29.36 in - South 10.4 mph - -  
6:00 AM 34 °F 30 °F 79% 29.39 in - SSE 6.9 mph - -  
8:00 AM 34 °F 30 °F 80% 29.47 in - SSE 5.8 mph - -  
9:00 AM 34 °F 30 °F 81% 29.50 in - South 5.8 mph - -  
10:00 AM 34 °F 30 °F 80% 29.54 in - SSE 13.4 mph - -  
11:00 AM 34 °F 30 °F 80% 29.56 in - South 4.6 mph - -  
12:00 PM 35 °F 30 °F 74% 29.60 in - South 6.9 mph - -  
2:00 PM 34 °F 31 °F 85% 29.64 in - South 8.9 mph - -  
3:00 PM 33 °F - % 29.67 in - NE 21.9 mph - -  
4:00 PM 33 °F 32 °F 93% 29.71 in - South 11.2 mph - -  
5:00 PM 33 °F 32 °F 93% 29.74 in - SSW 6.9 mph - -  
6:00 PM 33 °F 32 °F 93% 29.77 in - South 8.9 mph - -  
8:00 PM 33 °F 31 °F 92% 29.83 in - South 11.2 mph - -  
9:00 PM 33 °F 31 °F 90% 29.85 in - South 5.8 mph - -  
10:00 PM 33 °F 31 °F 89% 29.88 in - SSE 4.6 mph - -  
11:00 PM 33 °F 31 °F 90% 29.90 in - South 4.5 mph - -